Showing default

CENTISPACE-2 S10, 68359

Orbit data source: Space-Track

CENTISPACE-2 S10, 68359 is a payload satellite owned by Centispace (CN) in LEO that was launched on Sun, 22 Mar 2026 UTC via a JIELONG-3 launch vehicle from the Yellow Sea Launch Area, China (YSLA). Payload-class satellites include a variety of spacecraft equipped with specific instruments for various scientific and technological missions. These include communications satellites like Starlink; space stations such as the ISS; scientific satellites like the Hubble; Earth observation satellites from companies like Planet Labs, Umbra, and HawkEye 360; GPS; miniature CubeSats for education and research; and military/defense satellites.

Loading next visibility...
Identifier
68359, 2026-060K
Orbit
LEO
Country
Flag of CNCN / PRC
Related business
Manufacturer
HITSAT
Mission
Operational spacecraft
Bus & Motor
WK01H, Unknown motor
Mass
140 kg wet, 140 kg dry
Launch date (UTC)
2026-03-22 (3 months ago)
Launch vehicle
JIELONG-3
Launch site
Yellow Sea Launch Area, China (YSLA)
Object type
Payload
Rocket body
Debris
Shape & HBR
Unknown shape, 1.2 m
Radar Cross Section
Large (>1 m²)

Expand to show TLE details & history
Last TLE update: 16 hours ago

TLE from 16 hours ago
0 CENTISPACE-2 S10
1 68359U 26060K   26171.31935397  .00000525  00000-0  13494-3 0  9998
2 68359  54.9792  24.3754 0012106 305.9545  54.0326 14.64211269 13218
Epoch: 2026-06-20T07:39Z
TLE epoch observation values (Epoch: 2026-06-20T07:39:52.183Z)
Latitude
-0.00004°
Longitude
0.87227°
Altitude
675.659 km
Speed
7.523 km/s
True Right ascension
01h 37m 30s
True Declination
0° 00' 00"
Sunlit
Object was in daylight at epoch
Visualization orbit readout
Latitude
Unknown
Longitude
Unknown
Altitude
Unknown
Speed
Unknown
Apparent Right ascension
Unknown
Apparent Declination
Unknown
Sunlit
N/A
Visualization observer readout
Local Sidereal Time
10:18:03
Azimuth
Unknown
Elevation
Unknown
Doppler factor
Unknown
Orbital elements
Apogee altitude
688.12 km
Perigee altitude
671.032 km
Semi-major axis
7,057.713 km
Eccentricity
0.00121
Inclination
54.9792°
RAAN
24.3754°
Arg. of periapsis
305.9545°
True anomaly
54.14498°
Mean anomaly
54.0326°
Eccentric anomaly
54.08878°
Mean motion
3.66056 °/min
Orbital period
98.35 mins
BSTAR
0.00013494
Loading maneuver chart data...
Computing Atmospheric mass density...
Loading historical data...
Loading historical data...
Loading historical data...
Loading historical data...
Loading historical data...
Loading historical data...
Loading historical data...

Documentation

Showing up to 5 results
|